(274149) = 2008 FA67 = 1999 TP315

Discovered at Kitt Peak on 2008-03-28 by Spacewatch.

Orbit

Orbit type: Main Belt

Note: WebGL enabled browser required.

epoch2024-03-31.0
epoch JD2460400.5
perihelion date2019-11-03.34897
perihelion JD2458790.84897
argument of perihelion (°)53.08237
ascending node (°)209.15178
inclination (°)10.57455
eccentricity0.0602718
perihelion distance (AU)2.9160228
Tisserand w.r.t. Jupiter3.2
ΔV w.r.t. Earth (km/sec)11.1
semimajor axis (AU)3.1030491
mean anomaly (°)290.23704
mean daily motion (°/day)0.18031050
aphelion distance (AU)3.290
period (years)5.47
P-vector [x]-0.14173928
P-vector [y]-0.95654972
P-vector [z]-0.25479918
Q-vector [x]0.98585932
Q-vector [y]-0.15964846
Q-vector [z]0.05092913
absolute magnitude16.02
phase slope0.15
uncertainty0
referenceE2024-G95
observations used296
oppositions14
arc length (days)8947
first opposition used1999
last opposition used2024
residual rms (arc-secs)0.78
perturbers coarse indicatorM-v
perturbers precise indicator003Ek
first observation date used1999-10-09.0
last observation date used2024-04-07.0
computer nameMPCLINUX
JD of orbit computation2456376.485643
perihelion JD uncertainty (days)3.4160E-04
argument of perihelion uncertainty (°)6.2583E-05
ascending node uncertainty (°)1.5544E-05
inclination uncertainty (°)8.1269E-06
eccentricity uncertainty 4.8233E-08
perihelion distance uncertainty (AU)1.6400E-07
Minimum Orbit Intersection Distances (in AU)
for orbit epoch: 2460400.5, reference: E2024-G95
Mercury2.46033
Venus2.19952
Earth1.91608
Mars1.3805
Jupiter1.73802
Saturn5.79538
Uranus15.3497
Neptune26.5821

Observations

273 total observations over interval: 1999 10 09.39480 – 2023 01 13.368418
These data are available for download (format description).

Date (UT) J2000 RA J2000 Dec Magn Location Ref
1999 10 09.39480 01 59 17.46 +12 54 45.7 20.3 V 691 – Steward Observatory, Kitt Peak-Spacewatch MPS 16592
1999 10 09.41661 01 59 16.57 +12 54 38.0 20.4 V 691 – Steward Observatory, Kitt Peak-Spacewatch MPS 16593
1999 10 09.43866 01 59 15.67 +12 54 29.5 20.3 V 691 – Steward Observatory, Kitt Peak-Spacewatch MPS 16593
1999 10 13.368440 01 56 34.712 +12 28 49.36 20.69 V 645 – Apache Point-Sloan Digital Sky Survey MPS 253114
1999 10 13.371912 01 56 34.560 +12 28 48.00 21.56   645 – Apache Point-Sloan Digital Sky Survey MPS 253114
1999 10 19.32798 01 52 19.86 +11 48 20.4 20.7 V 691 – Steward Observatory, Kitt Peak-Spacewatch MPS 16593
1999 10 19.35124 01 52 18.82 +11 48 10.8 20.6 V 691 – Steward Observatory, Kitt Peak-Spacewatch MPS 16593
1999 10 19.37272 01 52 17.86 +11 48 01.6 21.0 V 691 – Steward Observatory, Kitt Peak-Spacewatch MPS 16593
2004 09 12.21507 23 21 16.48 +06 13 04.6 20.8 V 691 – Steward Observatory, Kitt Peak-Spacewatch MPS 253114
2004 09 12.24251 23 21 15.30 +06 12 53.2 20.7 V 691 – Steward Observatory, Kitt Peak-Spacewatch MPS 253114
2004 09 12.26952 23 21 14.16 +06 12 42.0 20.7 V 691 – Steward Observatory, Kitt Peak-Spacewatch MPS 253114
2004 09 24.16797 23 13 17.12 +04 46 19.5 20.5 V 291 – LPL/Spacewatch II MPS 253114
2004 09 24.17417 23 13 16.87 +04 46 16.6 20.6 V 291 – LPL/Spacewatch II MPS 253114
2004 09 24.18029 23 13 16.62 +04 46 13.9 20.6 V 291 – LPL/Spacewatch II MPS 253114
2004 11 04.168677 23 00 39.326 +00 31 06.51 21.42 V 645 – Apache Point-Sloan Digital Sky Survey MPS 390506
2004 11 04.172149 23 00 39.335 +00 31 05.71 22.10   645 – Apache Point-Sloan Digital Sky Survey MPS 390506
2005 11 06.44858 04 46 12.44 +14 01 57.4 20.7 V 691 – Steward Observatory, Kitt Peak-Spacewatch MPS 253114
2005 11 06.46627 04 46 11.80 +14 01 52.5 20.9 V 691 – Steward Observatory, Kitt Peak-Spacewatch MPS 253114
2005 11 06.48396 04 46 11.12 +14 01 47.7 20.6 V 691 – Steward Observatory, Kitt Peak-Spacewatch MPS 253114
2008 03 28.40613 14 51 27.42 -15 22 50.6 20.5 V 691 – Steward Observatory, Kitt Peak-Spacewatch MPS 244896
2008 03 28.42379 14 51 27.03 -15 22 45.8 20.3 V 691 – Steward Observatory, Kitt Peak-Spacewatch MPS 244896
2008 03 28.44143 14 51 26.67 -15 22 40.5 20.4 V 691 – Steward Observatory, Kitt Peak-Spacewatch MPS 244896
2008 04 01.35549 14 49 58.29 -15 02 55.8 20.2 V 691 – Steward Observatory, Kitt Peak-Spacewatch MPS 244896
2008 04 01.37311 14 49 57.80 -15 02 50.1 20.1 V 691 – Steward Observatory, Kitt Peak-Spacewatch MPS 244896
2008 04 01.39072 14 49 57.37 -15 02 44.5 20.4 V 691 – Steward Observatory, Kitt Peak-Spacewatch MPS 244896
2008 04 30.29646 14 31 57.93 -11 58 13.5 19.7 V G96 – Mt. Lemmon Survey MPS 253114
2008 04 30.30461 14 31 57.57 -11 58 10.0 19.7 V G96 – Mt. Lemmon Survey MPS 253114
2008 04 30.31275 14 31 57.18 -11 58 06.7 19.7 V G96 – Mt. Lemmon Survey MPS 253114
2008 04 30.32095 14 31 56.82 -11 58 03.3 19.6 V G96 – Mt. Lemmon Survey MPS 253114
2008 05 11.22670 14 24 09.82 -10 44 55.4   291 – LPL/Spacewatch II MPS 253114
2008 05 11.23108 14 24 09.61 -10 44 54.0   291 – LPL/Spacewatch II MPS 253114
2008 05 11.23492 14 24 09.47 -10 44 52.3   291 – LPL/Spacewatch II MPS 253114
2008 06 01.23237 14 12 47.77 -08 53 03.4 20.6 V G96 – Mt. Lemmon Survey MPS 253114
2008 06 01.24027 14 12 47.59 -08 53 01.5 20.7 V G96 – Mt. Lemmon Survey MPS 253114
2008 06 01.25606 14 12 47.23 -08 52 57.6 20.8 V G96 – Mt. Lemmon Survey MPS 253114
2010 10 08.397546 02 20 04.981 +13 40 23.14 21.16 w F51 – Pan-STARRS 1, Haleakala MPS 365738
2010 10 08.415708 02 20 04.279 +13 40 16.57 21.16 w F51 – Pan-STARRS 1, Haleakala MPS 365738
2010 10 08.433945 02 20 03.575 +13 40 10.14 21.00 w F51 – Pan-STARRS 1, Haleakala MPS 365738
2010 10 08.453011 02 20 02.840 +13 40 03.37 21.01 w F51 – Pan-STARRS 1, Haleakala MPS 365738
2010 10 08.564479 02 19 58.520 +13 39 23.31 21.10 g F51 – Pan-STARRS 1, Haleakala MPS 365738
2010 10 08.576236 02 19 58.063 +13 39 18.95 21.52 g F51 – Pan-STARRS 1, Haleakala MPS 365738
2010 10 08.589021 02 19 57.585 +13 39 14.59 20.82 r F51 – Pan-STARRS 1, Haleakala MPS 365738
2010 10 08.600009 02 19 57.153 +13 39 10.44 20.98 r F51 – Pan-STARRS 1, Haleakala MPS 365738
2010 10 28.32674 02 06 06.19 +11 30 45.3 19.9 V G96 – Mt. Lemmon Survey MPS 351388
2010 10 28.33193 02 06 05.97 +11 30 43.1 19.9 V G96 – Mt. Lemmon Survey MPS 351388
2010 10 28.33715 02 06 05.72 +11 30 40.9 19.9 V G96 – Mt. Lemmon Survey MPS 351388
2010 10 28.34240 02 06 05.47 +11 30 38.7 20.1 V G96 – Mt. Lemmon Survey MPS 351388
2011 02 01.22962 02 04 32.739 +08 44 38.17 22.5 w F51 – Pan-STARRS 1, Haleakala MPS 378689
2011 02 01.23361 02 04 32.899 +08 44 39.34 22.5 w F51 – Pan-STARRS 1, Haleakala MPS 378689
2011 02 01.23833 02 04 33.143 +08 44 40.30 23.0 w F51 – Pan-STARRS 1, Haleakala MPS 378689
2011 02 01.24232 02 04 33.354 +08 44 40.77 22.4 w F51 – Pan-STARRS 1, Haleakala MPS 378689
2013 03 04.48808 11 57 23.880 -08 44 42.79 20.5 r F51 – Pan-STARRS 1, Haleakala MPS 459085
2013 03 04.49910 11 57 23.437 -08 44 39.30 20.5 r F51 – Pan-STARRS 1, Haleakala MPS 459085
2013 03 04.52262 11 57 22.517 -08 44 31.39 20.2 i F51 – Pan-STARRS 1, Haleakala MPS 459085
2013 03 14.22558 11 50 54.96 -07 45 11.0 19.3 G G45 – Space Surveillance Telescope, Atom Site MPS 1608772
2013 03 14.26493 11 50 53.21 -07 44 55.4 19.9 G G45 – Space Surveillance Telescope, Atom Site MPS 1608772
2013 03 14.34457 11 50 49.78 -07 44 23.3 20.4 G G45 – Space Surveillance Telescope, Atom Site MPS 1608772
2013 03 14.35587 11 50 49.28 -07 44 18.7 20.2 G G45 – Space Surveillance Telescope, Atom Site MPS 1608772
2013 03 18.34859 11 48 01.69 -07 16 40.5 19.9 V G96 – Mt. Lemmon Survey MPS 461539
2013 03 18.35691 11 48 01.33 -07 16 37.2 19.7 V G96 – Mt. Lemmon Survey MPS 461539
2013 03 18.37339 11 48 00.61 -07 16 30.0 20.0 V G96 – Mt. Lemmon Survey MPS 461539
2015 09 07.72649 23 50 20.06 +08 21 16.5 20.5 R D29 – Purple Mountain Observatory, XuYi Station MPS 626344
2015 09 07.76000 23 50 18.84 +08 21 05.4 20.0 R D29 – Purple Mountain Observatory, XuYi Station MPS 626344
2015 09 23.31269 23 39 46.49 +06 35 51.6 20.3 V G96 – Mt. Lemmon Survey MPS 631457
2015 09 23.31792 23 39 46.32 +06 35 49.4 20.2 V G96 – Mt. Lemmon Survey MPS 631457
2015 09 23.32314 23 39 46.09 +06 35 46.8 20.4 V G96 – Mt. Lemmon Survey MPS 631457
2015 09 23.32837 23 39 45.85 +06 35 45.2 20.2 V G96 – Mt. Lemmon Survey MPS 631457
2015 09 23.34173 23 39 45.461 +06 35 39.35 20.1 i F51 – Pan-STARRS 1, Haleakala MPS 631457
2015 09 23.35213 23 39 45.034 +06 35 34.62 20.2 i F51 – Pan-STARRS 1, Haleakala MPS 631457
2015 09 23.37301 23 39 44.143 +06 35 25.50 20.2 i F51 – Pan-STARRS 1, Haleakala MPS 631457
2015 09 24.17437 23 39 11.78 +06 29 28.4 20.3 V G96 – Mt. Lemmon Survey MPS 631457
2015 09 24.17597 23 39 11.68 +06 29 28.2 20.4 V G96 – Mt. Lemmon Survey MPS 631457
2015 09 24.17753 23 39 11.64 +06 29 27.1 20.6 V G96 – Mt. Lemmon Survey MPS 631457
2015 09 24.17910 23 39 11.55 +06 29 26.2 20.3 V G96 – Mt. Lemmon Survey MPS 631457
2015 09 24.19068 23 39 11.10 +06 29 22.3 19.5 V 703 – Catalina Sky Survey MPS 631457
2015 09 24.19593 23 39 10.90 +06 29 19.6 19.9 V 703 – Catalina Sky Survey MPS 631457
2015 09 24.20639 23 39 10.42 +06 29 14.2 20.2 V 703 – Catalina Sky Survey MPS 631457
2015 10 08.37832 23 30 23.218 +04 42 45.40 20.8 w F51 – Pan-STARRS 1, Haleakala MPS 630767
2015 10 08.41646 23 30 21.912 +04 42 28.46 20.7 w F51 – Pan-STARRS 1, Haleakala MPS 630767
2015 10 20.25883 23 25 02.364 +03 19 41.36 20.5 i F51 – Pan-STARRS 1, Haleakala MPS 641259
2015 10 20.26918 23 25 02.134 +03 19 37.35 20.5 i F51 – Pan-STARRS 1, Haleakala MPS 641259
2015 10 20.27959 23 25 01.878 +03 19 33.44 20.6 i F51 – Pan-STARRS 1, Haleakala MPS 641259
2015 10 20.29000 23 25 01.652 +03 19 29.15 20.6 i F51 – Pan-STARRS 1, Haleakala MPS 641259
2015 10 21.26222 23 24 42.014 +03 13 15.26 20.4 i F51 – Pan-STARRS 1, Haleakala MPS 641259
2015 10 21.27263 23 24 41.821 +03 13 11.04 20.4 i F51 – Pan-STARRS 1, Haleakala MPS 641259
2015 10 21.28306 23 24 41.578 +03 13 07.10 20.2 i F51 – Pan-STARRS 1, Haleakala MPS 641259
2015 10 21.29349 23 24 41.367 +03 13 03.61 20.2 i F51 – Pan-STARRS 1, Haleakala MPS 641259
